Location: Unspecified
(0.0000°N, 0.0000°E)
Time: 18:45:29
(UTC+02:00)

Haruka - Visible Passes

Search period start: 30 June 2015 00:00
Search period end: 10 July 2015 00:00
Orbit: 539 x 21229 km, 31.3° (Epoch: 28 June)

Date Brightness Start Highest point End Pass type
(mag) Time Alt. Az. Time Alt. Az. Time Alt. Az.
30 Jun 8.1 06:59:17 14° WSW 11:30:16 37° NNW 11:54:42 10° NE visible
01 Jul 8.6 01:48:16 51° ESE 01:48:16 51° ESE 05:59:30 10° NE visible
02 Jul 8.5 02:53:34 69° SSE 02:59:47 71° SE 07:19:56 10° NE visible
03 Jul 8.4 03:58:51 66° SW 04:51:43 87° NW 08:35:22 10° NE visible
03 Jul 6.6 21:57:44 10° S 22:47:47 - ESE 21:59:50 12° SSE visible
04 Jul 8.6 05:04:06 47° WSW 08:13:26 56° NNW 09:48:15 10° NE visible
04 Jul 6.8 23:03:47 10° SSW 23:53:01 20° ESE 02:53:15 10° ENE visible
05 Jul 8.7 06:09:20 26° WSW 10:23:37 41° NNW 10:59:40 10° NE visible
06 Jul 7.3 00:58:14 40° ESE 00:58:14 40° ESE 04:51:31 10° ENE visible
06 Jul 7.8 07:17:47 10° W 11:52:17 36° N 12:10:04 10° ENE visible
07 Jul 8.6 02:03:25 62° ESE 02:03:25 62° ESE 06:18:27 10° NE visible
08 Jul 8.5 03:08:34 77° S 03:23:07 83° SE 07:36:56 10° NE visible
09 Jul 8.5 04:13:42 61° WSW 05:41:02 72° NNW 08:51:35 10° NE visible
09 Jul 6.7 22:10:33 10° S 23:02:34 10° E 23:04:39 10° E visible
09 Jul 6.7 22:10:33 10° S 23:02:35 10° E 23:04:39 10° E visible
09 Jul 6.7 22:10:33 10° S 23:02:33 10° E 23:04:39 10° E visible
